GEOSCAN 1 (RS92S1)

Last updated on Tue Aug 25 2026 00:03:14 GMT+0000 (Coordinated Universal Time)

1 64880U 25155E 26236.59621847 .00010311 00000+0 33557-3 0 9996 2 64880 97.4613 205.7115 0005457 305.0138 55.0590 15.32047304 91249
UTC large
Height (km)
Speed (km/s)
/
Latitude / Longitude
Inclination (degrees)
Orbital Period (minutes)
Azimuth
Elevation
Range (km)
Doppler Factor

Next 0 passes for location: London (51.5072 / 0.1276)

No passes found over London.
GEOSCAN 1 (RS92S1)